CW0728 Weather Reports


Display with metric or nautical units.
time (UTC)temp
F
wind
direction
speed
MPH
gust
MPH
rain 1hr
in
rain 24hr
in
rain mn
in
humidity
%
barometer
mb
20260504044542 38 213 0.0 1.0 0.00 0.00 0.00 70 1007.0
20260504043021 38 231 0.0 1.0 0.00 0.00 0.00 69 1006.9
20260504041601 38 321 0.0 1.0 0.00 0.00 0.00 68 1006.8
20260504040036 38 269 0.0 4.0 0.00 0.00 0.00 68 1006.8
20260504034518 39 234 0.0 0.0 0.00 0.00 0.00 66 1006.7
20260504033057 39 234 0.0 0.0 0.00 0.00 0.00 65 1006.6
20260504031533 40 234 0.0 1.0 0.00 0.00 0.00 64 1006.6
20260504030020 39 261 0.0 1.0 0.00 0.01 0.00 65 1006.6
20260504024601 40 268 0.0 1.0 0.00 0.01 0.00 65 1006.6
20260504023035 41 328 0.0 0.0 0.00 0.01 0.00 63 1006.5
20260504021508 41 328 0.0 1.0 0.00 0.01 0.00 61 1006.5
20260504020047 42 312 0.0 1.0 0.00 0.01 0.00 60 1006.5
20260504014525 43 331 0.0 2.0 0.00 0.01 0.00 59 1006.5
20260504013001 44 267 0.0 1.0 0.00 0.01 0.00 55 1006.5
20260504011540 44 329 0.0 0.0 0.00 0.01 0.00 54 1006.3
20260504010029 45 320 0.0 3.0 0.00 0.04 0.00 53 1006.1
20260504004507 45 292 2.0 8.0 0.00 0.04 0.00 51 1005.8
20260504003046 46 235 0.0 5.0 0.00 0.04 0.00 51 1005.6
20260504001521 46 338 1.0 6.0 0.00 0.04 0.00 49 1005.3
20260504000002 47 302 0.0 10.0 0.00 0.04 0.00 48 1005.0
20260503234539 48 303 0.0 4.0 0.00 0.04 0.00 46 1004.7
20260503233015 48 251 2.0 10.0 0.00 0.04 0.00 46 1004.5
20260503231551 49 282 3.0 9.0 0.00 0.04 0.00 45 1004.2
20260503230028 50 298 3.0 11.0 0.00 0.04 0.00 44 1003.9
20260503224504 50 255 2.0 10.0 0.00 0.04 0.00 44 1003.7
20260503223042 50 335 2.0 12.0 0.00 0.04 0.00 44 1003.5
20260503221521 50 355 0.0 9.0 0.00 0.04 0.00 48 1003.3
20260503214538 50 300 1.0 5.0 0.00 0.04 0.00 49 1002.9
20260503213016 50 323 2.0 9.0 0.00 0.04 0.00 48 1002.9
20260503211555 51 5 0.0 9.0 0.00 0.04 0.00 50 1002.8
20260503210032 51 15 1.0 9.0 0.00 0.04 0.00 47 1002.7
20260503204517 51 69 2.0 7.0 0.00 0.04 0.00 46 1002.6
20260503203005 52 122 2.0 16.0 0.00 0.04 0.00 46 1002.6
20260503201543 51 336 2.0 12.0 0.00 0.04 0.00 47 1002.6
20260503200024 51 82 4.0 17.0 0.00 0.04 0.00 47 1002.6
20260503194604 52 44 3.0 12.0 0.00 0.04 0.00 48 1002.7
20260503193037 51 89 3.0 13.0 0.00 0.04 0.00 50 1002.8
20260503191516 51 282 2.0 12.0 0.00 0.04 0.00 51 1002.9
20260503190055 51 338 4.0 12.0 0.00 0.04 0.00 50 1002.8
20260503184604 51 46 3.0 12.0 0.00 0.04 0.00 52 1002.8
20260503183025 51 332 2.0 12.0 0.00 0.04 0.00 54 1002.7
20260503181506 50 340 2.0 13.0 0.00 0.04 0.00 56 1002.7
20260503180042 49 308 2.0 13.0 0.00 0.04 0.00 59 1002.9
20260503174519 49 24 0.0 11.0 0.00 0.04 0.00 60 1002.9
20260503173058 49 324 4.0 11.0 0.00 0.04 0.00 61 1003.0
20260503171534 48 9 3.0 14.0 0.00 0.04 0.00 62 1002.9
20260503081541 42 315 0.0 0.0 0.00 0.11 0.00 93 1006.4
20260503071516 42 36 0.0 0.0 0.00 0.11 0.00 93 1006.6
20260503054509 43 51 0.0 0.0 0.00 0.11 0.00 93 1007.6
20260503053044 43 316 0.0 0.0 0.00 0.11 0.00 93 1007.6
20260503051521 43 318 0.0 0.0 0.00 0.11 0.00 93 1008.2
20260503050053 43 315 0.0 0.0 0.00 0.11 0.00 93 1008.3